Location: Makanda
(37.6176°N, 89.2090°W)
Time: 05:46:03
(UTC+00:00)

Cosmos 1680 Rocket - Pass Details

Date: 23 September 2019
Orbit: 760 x 780 km, 74.1° (Epoch: 20 October)

Event Time Altitude Azimuth Distance (km) Brightness Sun altitude
Exits shadow 10:14:47 10° 194° (SSW) 2,338 5.7 -18.5°
Reaches altitude 10° 10:14:53 10° 194° (SSW) 2,304 5.7 -18.5°
Maximum altitude 10:20:07 85° 108° (ESE) 775 3.5 -17.5°
Drops below altitude 10° 10:25:21 10° 19° (NNE) 2,306 6.4 -16.5°
Sets 10:27:44 0° 19° (NNE) 3,234 7.2 -16.1°
